Location: Naloco
(16.5478°S, 37.1017°E)
Time: 02:13:06
(UTC+00:00)

Cosmos 1954 Rocket - Pass Details

Date: 13 August 2020
Orbit: 753 x 781 km, 74.1° (Epoch: 23 September)

Event Time Altitude Azimuth Distance (km) Brightness Sun altitude
Rises 16:40:50 0° 195° (SSW) 3,250 7.3 -19.2°
Reaches altitude 10° 16:43:13 10° 196° (SSW) 2,323 6.6 -19.7°
Maximum altitude 16:48:30 82° 282° (WNW) 787 4.0 -21.0°
Drops below altitude 10° 16:53:46 10° 10° (N) 2,317 6.5 -22.2°
Sets 16:56:09 0° 11° (N) 3,241 7.2 -22.8°
